AVA2087 SKBO-SKCC

Flight info

Callsign AVA2087
Flight time 0h 40m
Altitude 29000
Route OSUSU4R OSUSU DCT BUV DCT ESNUT ESNUT2A
Aircraft A320/M-SDE3FGHIRWY/LB1

Departure

Time 2026-04-25 02:03
Airport El Dorado International Airport (SKBO)

Arrival

Time 2026-04-25 02:44
Airport Camilo Daza International Airport (SKCC)
Time Latitude Longitude Altitude Speed Heading
2026-04-25 01:03 4.69697 -74.14600 8371 ft 0 kts 217°
2026-04-25 01:28 4.69698 -74.14599 8370 ft 2 kts 216°
2026-04-25 01:28 4.69701 -74.14596 8370 ft 0 kts 212°
2026-04-25 01:29 4.69703 -74.14595 8370 ft 2 kts 212°
2026-04-25 01:29 4.69716 -74.14586 8370 ft 2 kts 218°
2026-04-25 01:29 4.69729 -74.14575 8370 ft 2 kts 269°
2026-04-25 01:30 4.69729 -74.14559 8370 ft 2 kts 290°
2026-04-25 01:30 4.69724 -74.14545 8370 ft 1 kts 302°
2026-04-25 01:30 4.69722 -74.14542 8370 ft 0 kts 303°
2026-04-25 01:40 4.69724 -74.14545 8370 ft 4 kts 303°
2026-04-25 01:40 4.69748 -74.14578 8370 ft 6 kts 307°
2026-04-25 01:41 4.69778 -74.14617 8370 ft 9 kts 307°
2026-04-25 01:41 4.69821 -74.14673 8370 ft 11 kts 307°
2026-04-25 01:41 4.69867 -74.14734 8370 ft 11 kts 306°
2026-04-25 01:41 4.69926 -74.14782 8370 ft 12 kts 359°
2026-04-25 01:42 4.69994 -74.14740 8370 ft 12 kts 37°
2026-04-25 01:42 4.70062 -74.14687 8370 ft 13 kts 37°
2026-04-25 01:42 4.70134 -74.14634 8370 ft 13 kts 37°
2026-04-25 01:42 4.70209 -74.14576 8370 ft 14 kts 37°
2026-04-25 01:43 4.70287 -74.14517 8370 ft 15 kts 37°
2026-04-25 01:43 4.70369 -74.14455 8370 ft 15 kts 37°
2026-04-25 01:43 4.70456 -74.14393 8371 ft 14 kts 18°
2026-04-25 01:43 4.70501 -74.14431 8371 ft 8 kts 309°
2026-04-25 01:44 4.70538 -74.14476 8370 ft 9 kts 308°
2026-04-25 01:44 4.70576 -74.14527 8371 ft 9 kts 307°
2026-04-25 01:44 4.70617 -74.14581 8371 ft 10 kts 307°
2026-04-25 01:44 4.70660 -74.14638 8370 ft 11 kts 307°
2026-04-25 01:45 4.70707 -74.14700 8371 ft 12 kts 307°
2026-04-25 01:45 4.70758 -74.14767 8370 ft 13 kts 307°
2026-04-25 01:45 4.70812 -74.14840 8370 ft 13 kts 307°
2026-04-25 01:45 4.70870 -74.14916 8370 ft 14 kts 307°
2026-04-25 01:46 4.70931 -74.14997 8370 ft 15 kts 307°
2026-04-25 01:46 4.70996 -74.15082 8370 ft 16 kts 307°
2026-04-25 01:46 4.71059 -74.15166 8370 ft 10 kts 306°
2026-04-25 01:46 4.71097 -74.15217 8371 ft 9 kts 307°
2026-04-25 01:47 4.71138 -74.15271 8371 ft 10 kts 307°
2026-04-25 01:47 4.71197 -74.15308 8371 ft 10 kts 350°
2026-04-25 01:47 4.71225 -74.15303 8370 ft 0 kts 27°
2026-04-25 01:47 4.71229 -74.15301 8370 ft 2 kts 30°
2026-04-25 01:48 4.71231 -74.15299 8371 ft 0 kts 36°
2026-04-25 02:01 4.71233 -74.15298 8371 ft 3 kts 36°
2026-04-25 02:01 4.71294 -74.15232 8370 ft 21 kts 49°
2026-04-25 02:01 4.71294 -74.15151 8370 ft 2 kts 126°
2026-04-25 02:02 4.71291 -74.15146 8369 ft 0 kts 126°
2026-04-25 02:02 4.71275 -74.15124 8370 ft 19 kts 126°
2026-04-25 02:02 4.71035 -74.14807 8368 ft 93 kts 127°
2026-04-25 02:03 4.70519 -74.14125 8369 ft 151 kts 127°
2026-04-25 02:03 4.69782 -74.13160 8461 ft 190 kts 128°
2026-04-25 02:03 4.68975 -74.12094 9170 ft 192 kts 122°
2026-04-25 02:03 4.68644 -74.10837 9818 ft 190 kts 78°
2026-04-25 02:04 4.69293 -74.09681 10027 ft 202 kts 35°
2026-04-25 02:04 4.70623 -74.09096 10169 ft 220 kts 15°
2026-04-25 02:04 4.72159 -74.08624 10357 ft 239 kts 15°
2026-04-25 02:04 4.73776 -74.08110 10907 ft 246 kts 17°
2026-04-25 02:05 4.75405 -74.07581 11626 ft 247 kts 17°
2026-04-25 02:05 4.77054 -74.07037 12312 ft 251 kts 18°
2026-04-25 02:05 4.78696 -74.06492 12994 ft 254 kts 18°
2026-04-25 02:05 4.80443 -74.05905 13284 ft 276 kts 18°
2026-04-25 02:06 4.82347 -74.05264 13480 ft 300 kts 18°
2026-04-25 02:06 4.84409 -74.04568 13647 ft 324 kts 18°
2026-04-25 02:06 4.86615 -74.03819 13837 ft 344 kts 18°
2026-04-25 02:06 4.88917 -74.03037 14351 ft 352 kts 18°
2026-04-25 02:07 4.91254 -74.02243 14982 ft 356 kts 18°
2026-04-25 02:07 4.93620 -74.01443 15604 ft 360 kts 18°
2026-04-25 02:07 4.96006 -74.00635 16214 ft 363 kts 18°
2026-04-25 02:07 4.98408 -73.99822 16781 ft 367 kts 18°
2026-04-25 02:08 5.00842 -73.98998 17307 ft 370 kts 18°
2026-04-25 02:08 5.03280 -73.98222 17921 ft 373 kts 15°
2026-04-25 02:08 5.05798 -73.97538 18515 ft 376 kts 13°
2026-04-25 02:08 5.08344 -73.96919 19049 ft 378 kts 13°
2026-04-25 02:09 5.10919 -73.96322 19567 ft 381 kts 12°
2026-04-25 02:09 5.13521 -73.95719 20057 ft 385 kts 13°
2026-04-25 02:09 5.16148 -73.95098 20550 ft 389 kts 13°
2026-04-25 02:09 5.18797 -73.94455 21032 ft 392 kts 13°
2026-04-25 02:10 5.21460 -73.93794 21490 ft 396 kts 14°
2026-04-25 02:10 5.24112 -73.93128 21930 ft 399 kts 14°
2026-04-25 02:10 5.26817 -73.92448 22369 ft 402 kts 14°
2026-04-25 02:10 5.29538 -73.91764 22802 ft 405 kts 14°
2026-04-25 02:11 5.32285 -73.91079 23223 ft 408 kts 14°
2026-04-25 02:11 5.35051 -73.90389 23657 ft 411 kts 14°
2026-04-25 02:11 5.37836 -73.89694 24046 ft 414 kts 14°
2026-04-25 02:11 5.40644 -73.88995 24442 ft 417 kts 14°
2026-04-25 02:12 5.43475 -73.88294 24813 ft 420 kts 14°
2026-04-25 02:12 5.46327 -73.87587 25175 ft 423 kts 14°
2026-04-25 02:12 5.49161 -73.86884 25535 ft 426 kts 14°
2026-04-25 02:12 5.52035 -73.86132 25915 ft 428 kts 18°
2026-04-25 02:13 5.54789 -73.84999 26257 ft 429 kts 28°
2026-04-25 02:13 5.57409 -73.83535 26608 ft 432 kts 30°
2026-04-25 02:13 5.60037 -73.82053 26940 ft 434 kts 30°
2026-04-25 02:13 5.62679 -73.80570 27278 ft 437 kts 30°
2026-04-25 02:14 5.65338 -73.79083 27601 ft 439 kts 30°
2026-04-25 02:14 5.68015 -73.77589 27918 ft 441 kts 30°
2026-04-25 02:14 5.70713 -73.76087 28224 ft 444 kts 30°
2026-04-25 02:14 5.73421 -73.74577 28529 ft 446 kts 30°
2026-04-25 02:15 5.76146 -73.73053 28829 ft 449 kts 30°
2026-04-25 02:15 5.78883 -73.71520 29063 ft 451 kts 31°
2026-04-25 02:15 5.81600 -73.69997 29113 ft 440 kts 31°
2026-04-25 02:15 5.84230 -73.68523 29109 ft 426 kts 31°
2026-04-25 02:16 5.86803 -73.67085 29101 ft 421 kts 31°
2026-04-25 02:16 5.91877 -73.64247 29090 ft 419 kts 31°
2026-04-25 02:17 5.96994 -73.61384 29073 ft 418 kts 31°
2026-04-25 02:17 6.02051 -73.58553 29059 ft 418 kts 30°
2026-04-25 02:18 6.07142 -73.55701 29064 ft 419 kts 30°
2026-04-25 02:18 6.12242 -73.52843 29062 ft 419 kts 30°
2026-04-25 02:19 6.17341 -73.49989 29047 ft 419 kts 30°
2026-04-25 02:19 6.22437 -73.47124 29045 ft 419 kts 30°
2026-04-25 02:20 6.27539 -73.44263 29038 ft 420 kts 30°
2026-04-25 02:20 6.32617 -73.41418 29034 ft 420 kts 30°
2026-04-25 02:21 6.37727 -73.38558 29029 ft 420 kts 30°
2026-04-25 02:21 6.42832 -73.35696 29027 ft 420 kts 30°
2026-04-25 02:22 6.47933 -73.32835 29024 ft 420 kts 30°
2026-04-25 02:22 6.53034 -73.29974 29022 ft 420 kts 30°
2026-04-25 02:23 6.58137 -73.27106 29018 ft 420 kts 30°
2026-04-25 02:23 6.63244 -73.24233 29020 ft 420 kts 30°
2026-04-25 02:24 6.68347 -73.21366 29025 ft 420 kts 30°
2026-04-25 02:24 6.73456 -73.18502 29026 ft 420 kts 30°
2026-04-25 02:25 6.78528 -73.15655 29063 ft 420 kts 30°
2026-04-25 02:25 6.83639 -73.12785 29068 ft 420 kts 30°
2026-04-25 02:26 6.88741 -73.09916 28895 ft 415 kts 30°
2026-04-25 02:26 6.91239 -73.08508 28646 ft 408 kts 30°
2026-04-25 02:26 6.93706 -73.07119 28392 ft 405 kts 30°
2026-04-25 02:26 6.96149 -73.05746 28119 ft 398 kts 30°
2026-04-25 02:27 6.98540 -73.04403 27687 ft 389 kts 30°
2026-04-25 02:27 7.00854 -73.03101 27254 ft 382 kts 30°
2026-04-25 02:27 7.03163 -73.01801 26815 ft 379 kts 29°
2026-04-25 02:27 7.05453 -73.00512 26359 ft 377 kts 29°
2026-04-25 02:28 7.07739 -72.99227 25918 ft 375 kts 29°
2026-04-25 02:28 7.10016 -72.97946 25440 ft 374 kts 29°
2026-04-25 02:28 7.12281 -72.96671 24981 ft 371 kts 29°
2026-04-25 02:28 7.14530 -72.95404 24508 ft 370 kts 29°
2026-04-25 02:29 7.16774 -72.94140 24032 ft 369 kts 28°
2026-04-25 02:29 7.19011 -72.92880 23553 ft 367 kts 28°
2026-04-25 02:29 7.21251 -72.91622 23076 ft 366 kts 28°
2026-04-25 02:29 7.23474 -72.90374 22603 ft 366 kts 28°
2026-04-25 02:30 7.25693 -72.89127 22138 ft 364 kts 28°
2026-04-25 02:30 7.27908 -72.87879 21677 ft 363 kts 29°
2026-04-25 02:30 7.30075 -72.86656 21227 ft 362 kts 29°
2026-04-25 02:30 7.32268 -72.85415 20766 ft 361 kts 29°
2026-04-25 02:31 7.34456 -72.84181 20312 ft 359 kts 28°
2026-04-25 02:31 7.36639 -72.82952 19863 ft 358 kts 29°
2026-04-25 02:31 7.38807 -72.81729 19419 ft 356 kts 29°
2026-04-25 02:31 7.40965 -72.80513 18970 ft 354 kts 29°
2026-04-25 02:32 7.43085 -72.79318 18535 ft 352 kts 29°
2026-04-25 02:32 7.45210 -72.78123 18081 ft 348 kts 29°
2026-04-25 02:32 7.47315 -72.76944 17626 ft 343 kts 29°
2026-04-25 02:32 7.49398 -72.75784 17207 ft 339 kts 26°
2026-04-25 02:33 7.51587 -72.74923 16749 ft 339 kts 14°
2026-04-25 02:33 7.53883 -72.74433 16388 ft 333 kts 11°
2026-04-25 02:33 7.56142 -72.73966 15730 ft 330 kts 11°
2026-04-25 02:33 7.58380 -72.73501 15082 ft 326 kts 11°
2026-04-25 02:34 7.60568 -72.73049 14448 ft 323 kts 11°
2026-04-25 02:34 7.62756 -72.72597 13813 ft 319 kts 11°
2026-04-25 02:34 7.64924 -72.72147 13195 ft 316 kts 11°
2026-04-25 02:34 7.67064 -72.71701 12568 ft 312 kts 11°
2026-04-25 02:35 7.69183 -72.71259 11937 ft 309 kts 11°
2026-04-25 02:35 7.71280 -72.70825 11338 ft 304 kts 11°
2026-04-25 02:35 7.73293 -72.70408 11146 ft 286 kts 11°
2026-04-25 02:35 7.75209 -72.70012 10792 ft 278 kts 11°
2026-04-25 02:36 7.77083 -72.69623 10909 ft 278 kts 11°
2026-04-25 02:36 7.79010 -72.69221 10428 ft 284 kts 12°
2026-04-25 02:36 7.80924 -72.68822 10190 ft 279 kts 12°
2026-04-25 02:36 7.82790 -72.68435 9865 ft 277 kts 12°
2026-04-25 02:37 7.84675 -72.68042 9535 ft 276 kts 12°
2026-04-25 02:37 7.86550 -72.67651 9197 ft 274 kts 12°
2026-04-25 02:37 7.88416 -72.67264 8856 ft 273 kts 12°
2026-04-25 02:37 7.90271 -72.66878 8485 ft 270 kts 12°
2026-04-25 02:38 7.92103 -72.66499 7917 ft 267 kts 12°
2026-04-25 02:38 7.93310 -72.66249 7511 ft 266 kts 12°
2026-04-25 02:38 7.95123 -72.65875 6847 ft 266 kts 12°
2026-04-25 02:38 7.96946 -72.65497 6133 ft 269 kts 12°
2026-04-25 02:39 7.99372 -72.64994 5315 ft 264 kts 13°
2026-04-25 02:39 8.00536 -72.64665 5165 ft 250 kts 26°
2026-04-25 02:39 8.01716 -72.63541 5044 ft 228 kts 65°
2026-04-25 02:39 8.01947 -72.62025 4662 ft 223 kts 99°
2026-04-25 02:40 8.01597 -72.60552 4290 ft 210 kts 102°
2026-04-25 02:40 8.01302 -72.59180 4026 ft 190 kts 101°
2026-04-25 02:40 8.01058 -72.57927 3753 ft 176 kts 99°
2026-04-25 02:40 8.00835 -72.56742 3504 ft 167 kts 99°
2026-04-25 02:41 8.00624 -72.55611 3270 ft 161 kts 99°
2026-04-25 02:41 8.00419 -72.54515 3041 ft 157 kts 99°
2026-04-25 02:41 8.00220 -72.53438 2824 ft 155 kts 99°
2026-04-25 02:41 8.00025 -72.52387 2611 ft 152 kts 100°
2026-04-25 02:42 7.99784 -72.51364 2393 ft 149 kts 113°
2026-04-25 02:42 7.99201 -72.50514 2199 ft 148 kts 139°
2026-04-25 02:42 7.98346 -72.49974 2011 ft 145 kts 162°
2026-04-25 02:42 7.97369 -72.49813 1822 ft 142 kts 185°
2026-04-25 02:43 7.96416 -72.50024 1642 ft 140 kts 199°
2026-04-25 02:43 7.95480 -72.50318 1453 ft 141 kts 198°
2026-04-25 02:43 7.94543 -72.50606 1254 ft 142 kts 198°
2026-04-25 02:43 7.93608 -72.50896 1078 ft 140 kts 198°
2026-04-25 02:44 7.92730 -72.51167 1028 ft 111 kts 197°
2026-04-25 02:44 7.92264 -72.51306 1038 ft 43 kts 197°
2026-04-25 02:44 7.92009 -72.51386 1048 ft 34 kts 196°
2026-04-25 02:44 7.91817 -72.51425 1054 ft 17 kts 178°
2026-04-25 02:45 7.91811 -72.51445 1054 ft 3 kts 335°
2026-04-25 02:45 7.91949 -72.51403 1050 ft 32 kts 17°
2026-04-25 02:45 7.92160 -72.51339 1042 ft 33 kts 17°
2026-04-25 02:45 7.92393 -72.51267 1033 ft 38 kts 18°
2026-04-25 02:46 7.92664 -72.51183 1027 ft 40 kts 17°
2026-04-25 02:46 7.92772 -72.51036 1025 ft 13 kts 75°
2026-04-25 02:46 7.92785 -72.50993 1025 ft 4 kts 67°
2026-04-25 02:46 7.92797 -72.50968 1025 ft 8 kts 64°
2026-04-25 02:47 7.92839 -72.50912 1024 ft 8 kts 33°
2026-04-25 02:47 7.92874 -72.50886 1024 ft 3 kts 60°
2026-04-25 02:47 7.92870 -72.50870 1024 ft 7 kts 104°
2026-04-25 02:47 7.92823 -72.50780 1023 ft 11 kts 149°
2026-04-25 02:48 7.92809 -72.50779 1023 ft 0 kts 177°
2026-04-25 02:48 7.92807 -72.50779 1023 ft 0 kts 171°
2026-04-25 02:48 7.92830 -72.50790 1024 ft 0 kts 122°
2026-04-25 02:48 7.92795 -72.50736 1023 ft 7 kts 149°
2026-04-25 02:49 7.92770 -72.50749 1023 ft 2 kts 223°
2026-04-25 02:49 7.92766 -72.50752 1023 ft 3 kts 220°
2026-04-25 02:49 7.92757 -72.50757 1023 ft 0 kts 205°